This is the latest recevied weather packets stored in our database for station/object IW2NTF-3. If no packets are shown the sender has not sent any weather packets the latest 10 day(s).
| Time | Temp. | Humidity | Pressure | Rain* | Wind** | Luminosity | Snow |
|---|---|---|---|---|---|---|---|
| 1788694503 | 30.56° C | 54% | 1022.1 hPa | 0 mm | - | 740 W/m² | - |
| 1788694443 | 30.56° C | 54% | 1022.1 hPa | 0 mm | - | 738 W/m² | - |
| 1788694383 | 30.56° C | 54% | 1022.1 hPa | 0 mm | - | 657 W/m² | - |
| 1788694323 | 30.56° C | 54% | 1022.1 hPa | 0 mm | - | 737 W/m² | - |
| 1788694264 | 30.56° C | 55% | 1022.3 hPa | 0 mm | - | 733 W/m² | - |
| 1788694229 | 30.56° C | 55% | 1022.3 hPa | 0 mm | - | 733 W/m² | - |
| 1788694143 | 30° C | 56% | 1022.2 hPa | 0 mm | - | 733 W/m² | - |
| 1788694083 | 30° C | 55% | 1022.2 hPa | 0 mm | - | 735 W/m² | - |
| 1788694023 | 30.56° C | 55% | 1022.2 hPa | 0 mm | - | 740 W/m² | - |
| 1788693963 | 30.56° C | 55% | 1022.2 hPa | 0 mm | - | 742 W/m² | - |
| 1788693903 | 30.56° C | 55% | 1022.2 hPa | 0 mm | - | 744 W/m² | - |
| 1788693843 | 30.56° C | 55% | 1022.2 hPa | 0 mm | - | 742 W/m² | - |
| 1788693783 | 30.56° C | 55% | 1022.2 hPa | 0 mm | - | 742 W/m² | - |
| 1788693723 | 30.56° C | 55% | 1022.1 hPa | 0 mm | - | 742 W/m² | - |
| 1788693663 | 30.56° C | 55% | 1022.2 hPa | 0 mm | - | 740 W/m² | - |
| 1788693603 | 30.56° C | 55% | 1022.2 hPa | 0 mm | - | 740 W/m² | - |
| 1788693544 | 30.56° C | 55% | 1022.2 hPa | 0 mm | - | 740 W/m² | - |
| 1788693484 | 30.56° C | 55% | 1022.2 hPa | 0 mm | - | 740 W/m² | - |
| 1788693423 | 30.56° C | 55% | 1022.3 hPa | 0 mm | - | 740 W/m² | - |
| 1788693363 | 30.56° C | 55% | 1022.2 hPa | 0 mm | - | 738 W/m² | - |
| 1788693303 | 30.56° C | 55% | 1022.2 hPa | 0 mm | - | 738 W/m² | - |
| 1788693244 | 30.56° C | 55% | 1022.2 hPa | 0 mm | - | 738 W/m² | - |
| 1788693183 | 30.56° C | 56% | 1022.2 hPa | 0 mm | - | 737 W/m² | - |
| 1788693124 | 30° C | 55% | 1022.2 hPa | 0 mm | - | 735 W/m² | - |
| 1788693063 | 30° C | 56% | 1022.2 hPa | 0 mm | - | 733 W/m² | - |
* Rain latest hour (hover to see other rain measurements)
** Current wind speed in m/s (hover to see current wind gust speed)